Location: ?????
(55.8833°N, 37.6500°E)
Time: 11:33:34
(UTC+00:00)

Cosmos 1378 Rocket - Pass Details

Date: 27 February 2020
Orbit: 602 x 627 km, 82.5° (Epoch: 08 April)

Event Time Altitude Azimuth Distance (km) Brightness Sun altitude
Rises 17:48:26 0° 347° (NNW) 2,871 7.5 -24.2°
Reaches altitude 10° 17:50:39 10° 346° (NNW) 1,962 6.6 -24.5°
Enters shadow 17:54:44 76° 309° (NW) 630 3.6 -25.1°
